TimeCDT,TemperatureF,Dew PointF,Humidity,Sea Level PressureIn,VisibilityMPH,Wind Direction,Wind SpeedMPH,Gust SpeedMPH,PrecipitationIn,Events,Conditions,WindDirDegrees,DateUTC
12:53 AM,55.0,53.1,93,30.05,10.0,Calm,Calm,-,N/A,,Clear,0,2013-10-09 05:53:00
1:53 AM,53.1,52.0,96,30.05,10.0,Calm,Calm,-,N/A,,Clear,0,2013-10-09 06:53:00
2:53 AM,52.0,51.1,97,30.04,9.0,Calm,Calm,-,N/A,,Clear,0,2013-10-09 07:53:00
3:53 AM,51.1,51.1,100,30.04,9.0,Calm,Calm,-,N/A,,Clear,0,2013-10-09 08:53:00
4:53 AM,52.0,50.0,93,30.04,1.5,Calm,Calm,-,N/A,,Clear,0,2013-10-09 09:53:00
5:04 AM,51.8,51.8,100,30.03,0.8,Calm,Calm,-,N/A,,Clear,0,2013-10-09 10:04:00
5:11 AM,51.8,51.8,100,30.03,10.0,Calm,Calm,-,N/A,,Clear,0,2013-10-09 10:11:00
5:53 AM,51.1,50.0,96,30.05,10.0,Calm,Calm,-,N/A,,Clear,0,2013-10-09 10:53:00
6:02 AM,51.8,50.0,94,30.04,7.0,Calm,Calm,-,N/A,,Scattered Clouds,0,2013-10-09 11:02:00
6:31 AM,50.0,48.2,94,30.04,1.5,Calm,Calm,-,N/A,,Scattered Clouds,0,2013-10-09 11:31:00
6:38 AM,50.0,50.0,100,30.04,4.0,Calm,Calm,-,N/A,,Scattered Clouds,0,2013-10-09 11:38:00
6:53 AM,51.1,50.0,96,30.06,4.0,Calm,Calm,-,N/A,,Scattered Clouds,0,2013-10-09 11:53:00
7:53 AM,52.0,52.0,100,30.07,4.0,Calm,Calm,-,N/A,,Scattered Clouds,0,2013-10-09 12:53:00
8:53 AM,59.0,57.0,93,30.10,10.0,Calm,Calm,-,N/A,,Clear,0,2013-10-09 13:53:00
9:53 AM,66.9,55.9,68,30.11,10.0,Calm,Calm,-,N/A,,Clear,0,2013-10-09 14:53:00
10:53 AM,71.1,55.0,57,30.12,10.0,East,3.5,-,N/A,,Clear,90,2013-10-09 15:53:00
11:53 AM,73.9,53.1,48,30.12,10.0,Calm,Calm,-,N/A,,Clear,0,2013-10-09 16:53:00
12:53 PM,77.0,55.0,47,30.09,10.0,SW,4.6,-,N/A,,Clear,230,2013-10-09 17:53:00
1:53 PM,79.0,53.1,40,30.07,10.0,Variable,3.5,-,N/A,,Clear,0,2013-10-09 18:53:00
2:53 PM,79.0,53.1,40,30.04,10.0,Calm,Calm,-,N/A,,Clear,0,2013-10-09 19:53:00
3:53 PM,80.1,53.1,39,30.04,10.0,East,3.5,-,N/A,,Clear,90,2013-10-09 20:53:00
4:53 PM,80.1,52.0,38,30.03,10.0,Calm,Calm,-,N/A,,Clear,0,2013-10-09 21:53:00
5:53 PM,79.0,54.0,42,30.03,10.0,Calm,Calm,-,N/A,,Clear,0,2013-10-09 22:53:00
6:53 PM,68.0,60.1,76,30.03,10.0,Calm,Calm,-,N/A,,Clear,0,2013-10-09 23:53:00
7:53 PM,64.0,59.0,84,30.04,10.0,Calm,Calm,-,N/A,,Clear,0,2013-10-10 00:53:00
8:53 PM,62.1,57.9,86,30.05,10.0,Calm,Calm,-,N/A,,Clear,0,2013-10-10 01:53:00
9:53 PM,60.1,57.0,90,30.06,10.0,Calm,Calm,-,N/A,,Clear,0,2013-10-10 02:53:00
10:53 PM,59.0,57.9,96,30.06,10.0,Calm,Calm,-,N/A,,Clear,0,2013-10-10 03:53:00
11:53 PM,59.0,57.0,93,30.06,10.0,Calm,Calm,-,N/A,,Clear,0,2013-10-10 04:53:00